When you browse on this site, cookies collect data to enhance your experience and personalize the content and advertising you see.
Visit our Privacy Policy to learn more. By continuing to use the site, you agree to this use of cookies and data.
  • în România
  • Lista ţărilor
  • Pe 7 zile
  • Temperatura apei
  • Hartă satelitară
  • Meteo pe hartă
  • Widget-uri
  • user-avatar
    Intrare

    Meteo pe oră la Bolshoy Suhodol

    Astăzi, 26 Aprilie, Vineri

    Timp Temperatura Precipitaţii Vânt Presiune Umiditate
    00:00 +17°C° 0 mm 2 m/s 743 mmHg 48%
    01:00 +17°C° 0 mm 2 m/s 743 mmHg 51%
    02:00 +16°C° 0 mm 2 m/s 743 mmHg 53%
    03:00 +16°C° 0 mm 2 m/s 743 mmHg 56%
    04:00 +15°C° 0 mm 2 m/s 743 mmHg 58%
    05:00 +15°C° 0 mm 2 m/s 743 mmHg 61%
    06:00 +14°C° 0 mm 2 m/s 743 mmHg 64%
    07:00 +15°C° 0 mm 1 m/s 744 mmHg 60%
    08:00 +16°C° 0 mm 1 m/s 744 mmHg 55%
    09:00 +19°C° 0 mm 1 m/s 744 mmHg 50%
    10:00 +19°C° 0 mm 2 m/s 744 mmHg 46%
    11:00 +20°C° 0 mm 2 m/s 744 mmHg 42%
    12:00 +21°C° 0 mm 2 m/s 744 mmHg 37%
    13:00 +21°C° 0 mm 2 m/s 743 mmHg 36%
    14:00 +21°C° 0 mm 2 m/s 743 mmHg 34%
    15:00 +23°C° 0 mm 2 m/s 743 mmHg 32%
    16:00 +21°C° 0 mm 2 m/s 743 mmHg 34%
    17:00 +22°C° 0 mm 1 m/s 743 mmHg 35%
    18:00 +22°C° 0 mm 1 m/s 742 mmHg 37%
    19:00 +21°C° 0 mm 1 m/s 742 mmHg 39%
    20:00 +19°C° 0 mm 1 m/s 742 mmHg 42%
    21:00 +18°C° 0 mm 1 m/s 742 mmHg 45%
    22:00 +16°C° 0 mm 1 m/s 742 mmHg 47%
    23:00 +16°C° 0 mm 1 m/s 742 mmHg 49%

    Mâine, 27 Aprilie, Sâmbătă

    Timp Temperatura Precipitaţii Vânt Presiune Umiditate
    00:00 +15°C° 0 mm 1 m/s 742 mmHg 52%
    01:00 +15°C° 0 mm 1 m/s 742 mmHg 54%
    02:00 +14°C° 0 mm 1 m/s 742 mmHg 56%
    03:00 +14°C° 0 mm 1 m/s 741 mmHg 58%
    04:00 +14°C° 0.1 mm 2 m/s 741 mmHg 61%
    05:00 +13°C° 0.1 mm 2 m/s 741 mmHg 63%
    06:00 +13°C° 0.1 mm 2 m/s 740 mmHg 66%
    07:00 +15°C° 0 mm 2 m/s 740 mmHg 60%
    08:00 +17°C° 0 mm 2 m/s 740 mmHg 54%
    09:00 +18°C° 0 mm 2 m/s 740 mmHg 49%
    10:00 +20°C° 0 mm 3 m/s 740 mmHg 44%
    11:00 +21°C° 0 mm 3 m/s 739 mmHg 39%
    12:00 +22°C° 0 mm 4 m/s 739 mmHg 33%
    13:00 +22°C° 0 mm 4 m/s 739 mmHg 36%
    14:00 +21°C° 0 mm 4 m/s 738 mmHg 38%
    15:00 +21°C° 0 mm 4 m/s 738 mmHg 40%
    16:00 +21°C° 0 mm 4 m/s 737 mmHg 43%
    17:00 +20°C° 0 mm 3 m/s 737 mmHg 45%
    18:00 +20°C° 0 mm 3 m/s 736 mmHg 48%
    19:00 +19°C° 0 mm 3 m/s 736 mmHg 52%
    20:00 +18°C° 0 mm 3 m/s 736 mmHg 56%
    21:00 +16°C° 0 mm 3 m/s 735 mmHg 60%
    22:00 +16°C° 0 mm 3 m/s 735 mmHg 64%
    23:00 +14°C° 0 mm 3 m/s 735 mmHg 68%

    Poimâine, 28 Aprilie, Duminică

    Timp Temperatura Precipitaţii Vânt Presiune Umiditate
    00:00 +13°C° 0 mm 3 m/s 734 mmHg 72%
    01:00 +13°C° 0.2 mm 3 m/s 734 mmHg 76%
    02:00 +12°C° 0.2 mm 3 m/s 733 mmHg 80%
    03:00 +12°C° 0.2 mm 3 m/s 733 mmHg 85%
    04:00 +12°C° 0.2 mm 4 m/s 733 mmHg 85%
    05:00 +12°C° 0.2 mm 4 m/s 732 mmHg 85%
    06:00 +12°C° 0.2 mm 4 m/s 732 mmHg 84%
    07:00 +12°C° 0.4 mm 4 m/s 732 mmHg 85%
    08:00 +13°C° 0.4 mm 4 m/s 733 mmHg 85%
    09:00 +13°C° 0.4 mm 4 m/s 733 mmHg 85%
    10:00 +12°C° 0 mm 5 m/s 733 mmHg 83%
    11:00 +10°C° 0 mm 6 m/s 734 mmHg 81%
    12:00 +8°C° 0 mm 7 m/s 734 mmHg 80%
    13:00 +9°C° 0 mm 7 m/s 735 mmHg 74%
    14:00 +10°C° 0 mm 6 m/s 735 mmHg 68%
    15:00 +10°C° 0 mm 6 m/s 736 mmHg 62%
    16:00 +10°C° 0 mm 6 m/s 736 mmHg 58%
    17:00 +10°C° 0 mm 6 m/s 737 mmHg 54%
    18:00 +9°C° 0 mm 6 m/s 737 mmHg 49%
    19:00 +8°C° 0 mm 6 m/s 738 mmHg 51%
    20:00 +7°C° 0 mm 6 m/s 738 mmHg 53%
    21:00 +4°C° 0 mm 6 m/s 739 mmHg 54%
    22:00 +3°C° 0 mm 6 m/s 740 mmHg 56%
    23:00 +3°C° 0 mm 6 m/s 740 mmHg 57%

    29 Aprilie, Luni

    Timp Temperatura Precipitaţii Vânt Presiune Umiditate
    00:00 +2°C° 0 mm 6 m/s 741 mmHg 58%
    01:00 +1°C° 0 mm 5 m/s 741 mmHg 60%
    02:00 0°C° 0 mm 4 m/s 741 mmHg 63%
    03:00 0°C° 0 mm 4 m/s 741 mmHg 65%
    04:00 -1°C° 0 mm 4 m/s 742 mmHg 66%
    05:00 -1°C° 0 mm 4 m/s 742 mmHg 68%
    06:00 -1°C° 0 mm 5 m/s 742 mmHg 69%
    07:00 0°C° 0 mm 5 m/s 742 mmHg 66%
    08:00 +1°C° 0 mm 5 m/s 743 mmHg 62%
    09:00 +3°C° 0 mm 5 m/s 743 mmHg 59%
    10:00 +5°C° 0 mm 5 m/s 743 mmHg 56%
    11:00 +6°C° 0 mm 5 m/s 743 mmHg 52%
    12:00 +7°C° 0 mm 5 m/s 743 mmHg 49%
    13:00 +7°C° 0 mm 5 m/s 743 mmHg 48%
    14:00 +7°C° 0 mm 5 m/s 742 mmHg 46%
    15:00 +8°C° 0 mm 5 m/s 742 mmHg 44%
    16:00 +8°C° 0 mm 5 m/s 742 mmHg 44%
    17:00 +7°C° 0 mm 4 m/s 742 mmHg 44%
    18:00 +7°C° 0 mm 4 m/s 742 mmHg 44%
    19:00 +7°C° 0 mm 3 m/s 742 mmHg 47%
    20:00 +5°C° 0 mm 3 m/s 742 mmHg 50%
    21:00 +4°C° 0 mm 3 m/s 742 mmHg 53%
    22:00 +4°C° 0 mm 2 m/s 742 mmHg 55%
    23:00 +3°C° 0 mm 2 m/s 742 mmHg 56%

    30 Aprilie, Marţi

    Timp Temperatura Precipitaţii Vânt Presiune Umiditate
    00:00 +3°C° 0 mm 2 m/s 742 mmHg 58%
    01:00 +2°C° 0 mm 2 m/s 742 mmHg 59%
    02:00 +2°C° 0 mm 2 m/s 742 mmHg 60%
    03:00 +1°C° 0 mm 2 m/s 742 mmHg 61%
    04:00 +1°C° 0 mm 2 m/s 742 mmHg 61%
    05:00 +1°C° 0 mm 2 m/s 742 mmHg 61%
    06:00 +1°C° 0 mm 2 m/s 742 mmHg 61%
    07:00 +3°C° 0 mm 2 m/s 742 mmHg 57%
    08:00 +5°C° 0 mm 2 m/s 741 mmHg 54%
    09:00 +7°C° 0 mm 3 m/s 741 mmHg 50%
    10:00 +7°C° 0 mm 3 m/s 741 mmHg 47%
    11:00 +8°C° 0 mm 3 m/s 740 mmHg 44%
    12:00 +9°C° 0 mm 3 m/s 740 mmHg 41%
    13:00 +9°C° 0 mm 3 m/s 739 mmHg 41%
    14:00 +10°C° 0 mm 3 m/s 739 mmHg 40%
    15:00 +10°C° 0 mm 3 m/s 738 mmHg 40%
    16:00 +10°C° 0 mm 2 m/s 738 mmHg 41%
    17:00 +9°C° 0 mm 2 m/s 738 mmHg 43%
    18:00 +9°C° 0 mm 2 m/s 737 mmHg 44%
    19:00 +9°C° 0 mm 2 m/s 737 mmHg 46%
    20:00 +8°C° 0 mm 2 m/s 737 mmHg 47%
    21:00 +8°C° 0 mm 2 m/s 737 mmHg 49%
    22:00 +7°C° 0 mm 2 m/s 737 mmHg 49%
    23:00 +7°C° 0 mm 2 m/s 736 mmHg 50%

    1 Mai, Miercuri

    Timp Temperatura Precipitaţii Vânt Presiune Umiditate
    00:00 +7°C° 0 mm 2 m/s 736 mmHg 51%
    01:00 +7°C° 0 mm 2 m/s 736 mmHg 52%
    02:00 +6°C° 0 mm 2 m/s 735 mmHg 53%
    03:00 +6°C° 0 mm 2 m/s 735 mmHg 54%
    04:00 +6°C° 0 mm 2 m/s 735 mmHg 57%
    05:00 +5°C° 0 mm 2 m/s 735 mmHg 60%
    06:00 +5°C° 0 mm 2 m/s 734 mmHg 63%
    07:00 +5°C° 0 mm 3 m/s 734 mmHg 60%
    08:00 +7°C° 0 mm 3 m/s 734 mmHg 58%
    09:00 +7°C° 0 mm 4 m/s 734 mmHg 56%
    10:00 +7°C° 0 mm 4 m/s 734 mmHg 53%
    11:00 +8°C° 0 mm 4 m/s 734 mmHg 51%
    12:00 +8°C° 0 mm 5 m/s 733 mmHg 49%
    13:00 +9°C° 0 mm 5 m/s 733 mmHg 48%
    14:00 +9°C° 0 mm 5 m/s 733 mmHg 48%
    15:00 +9°C° 0 mm 5 m/s 733 mmHg 48%
    16:00 +9°C° 0 mm 5 m/s 732 mmHg 49%
    17:00 +9°C° 0 mm 5 m/s 732 mmHg 51%
    18:00 +8°C° 0 mm 5 m/s 732 mmHg 53%
    19:00 +7°C° 0 mm 4 m/s 732 mmHg 57%
    20:00 +7°C° 0 mm 3 m/s 731 mmHg 62%
    21:00 +5°C° 0 mm 3 m/s 731 mmHg 66%
    22:00 +5°C° 0 mm 3 m/s 731 mmHg 67%
    23:00 +4°C° 0 mm 3 m/s 730 mmHg 68%
    Arată mai mult